Regional Weather Roundup
Issued by NWS Boston, MA

Home | Current Version | Previous Version | Text Only | Print | Product List | Glossary On
Versions: 1 2 3 4 5 6 7 8 9 10 11 12 13 14 15 16 17 18 19 20 21 22 23 24 25 26 27 28 29 30 31 32 33 34 35 36 37 38 39 40 41 42 43 44 45 46 47 48 49 50
000
ASUS41 KBOX 230510
RWRBOX

REGIONAL WEATHER ROUNDUP
NATIONAL WEATHER SERVICE TAUNTON MA
1200 AM EST TUE DEC 23 2014

NOTE:  "FAIR" INDICATES FEW OR NO CLOUDS BELOW 12,000 FEET WITH NO
SIGNIFICANT WEATHER AND/OR OBSTRUCTIONS TO VISIBILITY.  THE FOLLOWING
OBSERVATION LOCATIONS DO NOT REPORT PRESENT WEATHER...PROVINCETOWN...
SMITHFIELD...BLOCK ISLAND...KEENE...AND OXFORD.

MAZALL-230600-
EASTERN MASSACHUSETTS

CITY           SKY/WX    TMP DP  RH WIND       PRES   REMARKS
BOSTON         MOCLDY    42  37  82 E12       30.29F
BEVERLY        CLOUDY    37  35  92 E6        30.29F
LAWRENCE       CLOUDY    35  34  96 NE6       30.30F FOG     WCI  30
BEDFORD        FOG       35  35 100 CALM      30.27F VSB 3/4
BLUE HILL        N/A     39  35  86 E15G24    30.24F WCI  31
NORWOOD        MOCLDY    35  34  96 CALM      30.27F FOG
MARSHFIELD     CLOUDY    45  39  81 E8        30.30F
PLYMOUTH       CLOUDY    38  36  92 NE3       30.28F
TAUNTON        CLOUDY    38  36  92 NE3       30.26F
NEW BEDFORD    CLOUDY    41  38  89 NE8       30.25F
$$

MAZALL-230600-
CAPE COD AND THE ISLANDS

CITY           SKY/WX    TMP DP  RH WIND       PRES   REMARKS
FALMOUTH       CLOUDY    43  37  81 E7        30.27F
HYANNIS        CLOUDY    43  39  86 E6        30.26F
CHATHAM        LGT RAIN  43  41  93 E9        30.28F FOG
PROVINCETOWN   MOCLDY    43  37  81 E10       30.29F
NANTUCKET      CLOUDY    45  41  86 E10       30.25F
MARTHAS VNYRD  CLOUDY    43  39  86 E10       30.25F
$$

MAZALL-230600-
CENTRAL AND WESTERN MASSACHUSETTS

CITY           SKY/WX    TMP DP  RH WIND       PRES   REMARKS
WORCESTER      FOG       35  35 100 NE8       30.24F VSB 1/4 WCI  29
FITCHBURG      CLOUDY    36  34  92 CALM      30.29F FOG
ORANGE         CLOUDY    36  34  92 CALM      30.26F
SPRINGFIELD    CLOUDY    38  35  89 NW3       30.26R
WESTFIELD      CLOUDY    38  34  85 N6        30.26S
NORTH ADAMS    CLOUDY    37  33  85 E12G20    30.22F WCI  29
PITTSFIELD     CLOUDY    35  34  96 E5        30.18F WCI  31
$$

RIZALL-230600-
RHODE ISLAND

CITY           SKY/WX    TMP DP  RH WIND       PRES   REMARKS
PROVIDENCE     CLOUDY    40  37  89 NE6       30.27F
NEWPORT        CLOUDY    42  37  82 E13       30.24F
BLOCK ISLAND   CLOUDY    45  37  76 E17G23    30.22F
SMITHFIELD     CLOUDY    37  32  81 E6        30.25F
WESTERLY       CLOUDY    44  40  85 E9        30.24F
$$

CTZALL-230600-
CONNECTICUT

CITY           SKY/WX    TMP DP  RH WIND       PRES   REMARKS
BRADLEY INTL   DRIZZLE   39  35  86 N5        30.25F
HARTFORD       CLOUDY    40  37  89 VRB5      30.25F
BRIDGEPORT     LGT RAIN  44  42  93 E16       30.20F
DANBURY        CLOUDY    40  37  89 NE7       30.20F FOG
GROTON         CLOUDY    44  40  85 E12       30.24R
NEW HAVEN      LGT RAIN  46  40  79 NE7       30.21F
CHESTER        LGT RAIN  43  39  87 E6        30.23S
MERIDEN        LGT RAIN  41  38  89 NE3       30.23F FOG
WILLIMANTIC    CLOUDY    43  36  76 E3        30.26S
OXFORD         CLOUDY    39  34  81 E8        30.20F
$$

MEZ002-015-021-024-NHZ003-005-008-011-012-014-VTZ005-008-230600-
NORTHERN NEW ENGLAND

CITY           SKY/WX    TMP DP  RH WIND       PRES   REMARKS
PORTLAND ME    CLOUDY    35  33  92 N3        30.35F
BANGOR ME      CLOUDY    33  31  92 NE3       30.39S
CONCORD NH     MOCLDY    33  32  96 NE5       30.29F WCI  29
MANCHESTER NH  CLOUDY    36  34  92 NE5       30.28F FOG
NASHUA NH      MOCLDY    36  35  96 CALM      30.30F
PORTSMOUTH NH  LGT RAIN  34  32  94 N3        30.30F FOG
JAFFREY NH     CLOUDY    33  32  96 CALM      30.26R FOG
KEENE NH       CLOUDY    36  34  93 CALM      30.27F
BURLINGTON VT  CLOUDY    26  21  81 CALM      30.25F FOG
MT. WASHINGTON FOG       18  18 100 S31         N/A  VSB 1/16WCI  -2
$$

NYZ052-076-230600-
EASTERN NEW YORK

CITY           SKY/WX    TMP DP  RH WIND       PRES   REMARKS
ALBANY         CLOUDY    34  27  75 N3        30.23F
NEW YORK CITY  DRIZZLE   43  42  97 NE12      30.16F FOG
$$

ANZALL-230600-
MARINE OBSERVATIONS

STATION/POSITION TIME  TEMP    WIND        PRES    VSBY  WAVE
                       AIR SEA DIR/SP/G                  HT/PER
                 (UTC) (F)     (DEG/KT/KT) (MB)    (MI)  (FT/S)
BOSTON BUOY      0450   44 46  100/ 12/ 14 1025.9F         4/ 7
BUZZARDS BAY     0400           80/ 18/ 19 1025.3F
NANTUCKET SOUND  0450   44 43   80/ 14/ 17 1024.2F         3/ 4
MASS BAY-STELLWA 0404   44 43  120/ 12/ 14   N/A    1 7/8  5/ 8
ISLE OF SHOALS   0500   43     110/ 20/ 21 1025.0F
S OF BLOCK IS    0408      51                N/A           5/ 5
$$

......................KEY.........................
  SKY/WX - SKY CONDITION/PRESENT WEATHER
  TMP    - TEMPERATURE IN FAHRENHEIT
  DWPT   - DEWPOINT IN FAHRENHEIT
  RH     - RELATIVE HUMIDITY IN PERCENT
  WIND   - DIRECTION AND SPEED IN MPH
  PRES   - MEAN SEA LEVEL PRESSURE IN INCHES OF HG
  WCI    - WIND CHILL INDEX
  VSB    - VISIBILITY IN MILES
  HX     - HEAT INDEX
  TC     - TEMPERATURE IN CELSIUS
  VRB    - VARIABLE WIND DIRECTION
  N/A    - NOT AVAILABLE


USA.gov is the U.S. government's official web portal to all federal, state and local government web resources and services.